When you browse on this site, cookies collect data to enhance your experience and personalize the content and advertising you see.
Visit our Privacy Policy to learn more. By continuing to use the site, you agree to this use of cookies and data.
  • In Switzerland
  • List of Countries
  • For 7 days
  • Water Temperature
  • Satellite Maps
  • Weather Map
  • Weather Widgets
  • user-avatar
    Login

    Hourly Weather Serhiivka

    Today, 18 November, Sunday

    Time Temperature Precipitation Wind Pressure Humidity
    00:00 +1°C° 0 mm 3 mps 771 mmHg 82%
    01:00 +1°C° 0 mm 2 mps 771 mmHg 83%
    02:00 +1°C° 0 mm 2 mps 771 mmHg 86%
    03:00 +1°C° 0 mm 2 mps 771 mmHg 86%
    04:00 +1°C° 0 mm 2 mps 771 mmHg 86%
    05:00 +1°C° 0 mm 2 mps 770 mmHg 87%
    06:00 +1°C° 0 mm 2 mps 770 mmHg 85%
    07:00 +1°C° 0 mm 2 mps 770 mmHg 83%
    08:00 +3°C° 0 mm 1 mps 769 mmHg 84%
    09:00 +3°C° 0 mm 1 mps 769 mmHg 81%
    10:00 +4°C° 0 mm 1 mps 769 mmHg 78%
    11:00 +4°C° 0 mm 1 mps 769 mmHg 76%
    12:00 +4°C° 0 mm 1 mps 769 mmHg 74%
    13:00 +5°C° 0 mm 1 mps 768 mmHg 73%
    14:00 +5°C° 0 mm 1 mps 768 mmHg 72%
    15:00 +5°C° 0 mm 1 mps 768 mmHg 73%
    16:00 +4°C° 0 mm 1 mps 768 mmHg 75%
    17:00 +4°C° 0 mm 1 mps 767 mmHg 76%
    18:00 +4°C° 0 mm 1 mps 767 mmHg 76%
    19:00 +3°C° 0 mm 2 mps 767 mmHg 77%
    20:00 +3°C° 0 mm 2 mps 767 mmHg 77%
    21:00 +3°C° 0 mm 2 mps 767 mmHg 77%
    22:00 +2°C° 0 mm 3 mps 767 mmHg 77%
    23:00 +2°C° 0 mm 3 mps 767 mmHg 77%

    Tomorrow, 19 November, Monday

    Time Temperature Precipitation Wind Pressure Humidity
    00:00 +1°C° 0 mm 4 mps 766 mmHg 77%
    01:00 +1°C° 0 mm 4 mps 766 mmHg 77%
    02:00 +1°C° 0 mm 4 mps 766 mmHg 77%
    03:00 +1°C° 0 mm 4 mps 766 mmHg 79%
    04:00 +1°C° 0 mm 5 mps 765 mmHg 80%
    05:00 +1°C° 0 mm 5 mps 765 mmHg 82%
    06:00 +2°C° 0 mm 5 mps 765 mmHg 82%
    07:00 +2°C° 0 mm 6 mps 765 mmHg 83%
    08:00 +2°C° 0 mm 6 mps 765 mmHg 83%
    09:00 +3°C° 0.2 mm 7 mps 765 mmHg 82%
    10:00 +3°C° 0.2 mm 7 mps 765 mmHg 81%
    11:00 +2°C° 0.2 mm 8 mps 764 mmHg 80%
    12:00 +2°C° 0.7 mm 8 mps 764 mmHg 81%
    13:00 +2°C° 0.7 mm 9 mps 763 mmHg 82%
    14:00 +2°C° 0.7 mm 9 mps 763 mmHg 84%
    15:00 +2°C° 2.5 mm 9 mps 762 mmHg 86%
    16:00 +3°C° 2.5 mm 9 mps 761 mmHg 88%
    17:00 +3°C° 2.5 mm 10 mps 761 mmHg 90%
    18:00 +3°C° 2.5 mm 9 mps 760 mmHg 90%
    19:00 +5°C° 2.5 mm 9 mps 760 mmHg 90%
    20:00 +5°C° 2.5 mm 9 mps 760 mmHg 91%
    21:00 +5°C° 0.6 mm 9 mps 759 mmHg 90%
    22:00 +6°C° 0.6 mm 9 mps 759 mmHg 90%
    23:00 +6°C° 0.6 mm 9 mps 758 mmHg 90%

    Day after tomorrow, 20 November, Tuesday

    Time Temperature Precipitation Wind Pressure Humidity
    00:00 +6°C° 0.1 mm 8 mps 758 mmHg 91%
    01:00 +6°C° 0.1 mm 7 mps 758 mmHg 91%
    02:00 +8°C° 0.1 mm 6 mps 758 mmHg 92%
    03:00 +8°C° 0.1 mm 6 mps 758 mmHg 91%
    04:00 +8°C° 0.1 mm 6 mps 758 mmHg 90%
    05:00 +8°C° 0.1 mm 6 mps 758 mmHg 89%
    06:00 +8°C° 0.1 mm 6 mps 758 mmHg 89%
    07:00 +8°C° 0.1 mm 6 mps 759 mmHg 90%
    08:00 +7°C° 0.1 mm 6 mps 759 mmHg 91%
    09:00 +8°C° 0 mm 7 mps 760 mmHg 88%
    10:00 +8°C° 0 mm 7 mps 760 mmHg 85%
    11:00 +8°C° 0 mm 7 mps 761 mmHg 82%
    12:00 +8°C° 0 mm 7 mps 761 mmHg 80%
    13:00 +7°C° 0 mm 6 mps 762 mmHg 78%
    14:00 +7°C° 0 mm 6 mps 762 mmHg 75%
    15:00 +6°C° 0 mm 5 mps 763 mmHg 77%
    16:00 +5°C° 0 mm 5 mps 763 mmHg 78%
    17:00 +5°C° 0 mm 4 mps 763 mmHg 80%
    18:00 +4°C° 0 mm 4 mps 764 mmHg 80%
    19:00 +4°C° 0 mm 3 mps 764 mmHg 81%
    20:00 +4°C° 0 mm 3 mps 765 mmHg 82%
    21:00 +4°C° 0 mm 3 mps 765 mmHg 82%
    22:00 +3°C° 0 mm 3 mps 765 mmHg 82%
    23:00 +3°C° 0 mm 3 mps 765 mmHg 82%

    21 November, Wednesday

    Time Temperature Precipitation Wind Pressure Humidity
    00:00 +3°C° 0 mm 3 mps 765 mmHg 82%
    01:00 +3°C° 0 mm 3 mps 765 mmHg 83%
    02:00 +3°C° 0 mm 3 mps 765 mmHg 83%
    03:00 +3°C° 0 mm 3 mps 765 mmHg 83%
    04:00 +3°C° 0 mm 3 mps 765 mmHg 83%
    05:00 +3°C° 0 mm 3 mps 765 mmHg 83%
    06:00 +3°C° 0 mm 4 mps 765 mmHg 83%
    07:00 +3°C° 0 mm 4 mps 765 mmHg 83%
    08:00 +1°C° 0 mm 4 mps 765 mmHg 83%
    09:00 +3°C° 0 mm 4 mps 765 mmHg 81%
    10:00 +3°C° 0 mm 4 mps 765 mmHg 80%
    11:00 +3°C° 0 mm 4 mps 765 mmHg 79%
    12:00 +4°C° 0 mm 4 mps 765 mmHg 78%
    13:00 +3°C° 0 mm 5 mps 765 mmHg 78%
    14:00 +3°C° 0 mm 5 mps 764 mmHg 77%
    15:00 +3°C° 0 mm 5 mps 764 mmHg 78%
    16:00 +3°C° 0 mm 6 mps 764 mmHg 79%
    17:00 +2°C° 0 mm 6 mps 764 mmHg 80%
    18:00 +2°C° 0 mm 6 mps 764 mmHg 79%
    19:00 +2°C° 0 mm 6 mps 765 mmHg 79%
    20:00 +2°C° 0 mm 6 mps 765 mmHg 79%
    21:00 +2°C° 0 mm 6 mps 765 mmHg 79%
    22:00 +2°C° 0 mm 6 mps 765 mmHg 78%
    23:00 +2°C° 0 mm 6 mps 765 mmHg 78%

    22 November, Thursday

    Time Temperature Precipitation Wind Pressure Humidity
    00:00 +1°C° 0 mm 6 mps 765 mmHg 77%
    01:00 +1°C° 0 mm 6 mps 765 mmHg 77%
    02:00 +1°C° 0 mm 6 mps 765 mmHg 76%
    03:00 +1°C° 0 mm 6 mps 765 mmHg 76%
    04:00 -1°C° 0 mm 6 mps 765 mmHg 76%
    05:00 -1°C° 0 mm 6 mps 765 mmHg 77%
    06:00 -1°C° 0 mm 6 mps 765 mmHg 76%
    07:00 -2°C° 0 mm 7 mps 765 mmHg 76%
    08:00 -2°C° 0 mm 7 mps 765 mmHg 76%
    09:00 -1°C° 0 mm 7 mps 766 mmHg 71%
    10:00 +1°C° 0 mm 6 mps 766 mmHg 66%
    11:00 +2°C° 0 mm 6 mps 766 mmHg 62%
    12:00 +2°C° 0 mm 6 mps 766 mmHg 59%
    13:00 +3°C° 0 mm 6 mps 766 mmHg 57%
    14:00 +3°C° 0 mm 6 mps 766 mmHg 54%
    15:00 +2°C° 0 mm 6 mps 766 mmHg 57%
    16:00 +1°C° 0 mm 6 mps 766 mmHg 59%
    17:00 0°C° 0 mm 5 mps 766 mmHg 62%
    18:00 0°C° 0 mm 5 mps 767 mmHg 65%
    19:00 -1°C° 0 mm 5 mps 767 mmHg 68%
    20:00 -1°C° 0 mm 5 mps 768 mmHg 71%
    21:00 -2°C° 0 mm 5 mps 768 mmHg 73%
    22:00 -2°C° 0 mm 5 mps 768 mmHg 76%
    23:00 -4°C° 0 mm 5 mps 768 mmHg 78%

    23 November, Friday

    Time Temperature Precipitation Wind Pressure Humidity
    00:00 -4°C° 0 mm 5 mps 768 mmHg 79%
    01:00 -4°C° 0 mm 5 mps 769 mmHg 80%
    02:00 -4°C° 0 mm 5 mps 769 mmHg 81%
    03:00 -4°C° 0 mm 5 mps 769 mmHg 81%
    04:00 -4°C° 0 mm 5 mps 769 mmHg 81%
    05:00 -4°C° 0 mm 5 mps 770 mmHg 82%
    06:00 -4°C° 0 mm 5 mps 770 mmHg 80%
    07:00 -4°C° 0 mm 5 mps 770 mmHg 78%
    08:00 -4°C° 0 mm 5 mps 771 mmHg 76%
    09:00 -2°C° 0 mm 5 mps 771 mmHg 70%
    10:00 -1°C° 0 mm 4 mps 771 mmHg 64%
    11:00 0°C° 0 mm 4 mps 771 mmHg 58%
    12:00 +1°C° 0 mm 4 mps 771 mmHg 57%
    13:00 +1°C° 0 mm 4 mps 771 mmHg 55%
    14:00 +3°C° 0 mm 4 mps 771 mmHg 53%
    15:00 +1°C° 0 mm 4 mps 771 mmHg 58%
    16:00 0°C° 0 mm 4 mps 772 mmHg 62%
    17:00 -1°C° 0 mm 4 mps 772 mmHg 67%
    18:00 -1°C° 0 mm 3 mps 772 mmHg 69%
    19:00 -1°C° 0 mm 3 mps 772 mmHg 71%
    20:00 -1°C° 0 mm 3 mps 772 mmHg 73%
    21:00 -1°C° 0 mm 3 mps 772 mmHg 75%
    22:00 -2°C° 0 mm 3 mps 772 mmHg 76%
    23:00 -2°C° 0 mm 3 mps 772 mmHg 78%
    Show more